Date String (YYYY-MM-DD hh:mm:ss) UTC,Instrument flags,absolute air pressure of the measurement (hPa),sample flow rate (lpm),inlet stack bypass flow (lpm),air temperature of the measurement (°C),ambient temperature measured by the external sensor (°C),aerosol sample conditioner tube jacket temperature (°C),OPC LED temperature (°C),internal box temperature (°C),relative humidity of the measurement (%),span deviation,mass concentration of particles derived from Lorenz-Mie calculation of OPC scattering (μg/m³),mass concentration of particles derived from Lorenz-Mie calculation of OPC scattering (μg/m³),mass concentration of particles derived from Lorenz-Mie calculation of OPC scattering (μg/m³)
DateTimeUTC,F1_M11,P_M11,Q1_M11,Q2_M11,T1_M11,T2_M11,T3_M11,T4_M11,T5_M11,U1_M11,ZSPAN_M11,X0_M11,X2_M11,X1_M11
2023-08-31 11:00:00,SystemResetWarning,0829.2,5.00,000.00,025.7,022.8,000.0,034.2,027.0,22.5,0000.0,0010.12,0004.25,0003.64
2023-08-31 11:01:00,SystemResetWarning,0829.3,5.00,000.00,025.7,023.2,000.0,034.2,027.1,22.7,0000.0,0009.81,0004.23,0003.64
2023-08-31 11:02:00,SystemResetWarning,0829.3,5.00,000.00,025.7,023.5,000.0,034.2,027.2,22.8,0000.0,0009.82,0004.25,0003.65
2023-08-31 11:03:00,SystemResetWarning,0829.2,5.00,000.00,025.8,023.8,000.0,034.2,027.3,22.9,0000.0,0010.05,0004.28,0003.67
2023-08-31 11:04:00,SystemResetWarning,0829.2,5.00,000.00,025.8,024.1,000.0,034.2,027.4,23.0,0000.0,0010.09,0004.28,0003.66
2023-08-31 11:05:00,SystemResetWarning,0829.2,4.99,000.00,025.8,024.4,000.0,034.2,027.5,23.0,0000.0,0009.97,0004.26,0003.64
2023-08-31 11:06:00,SystemResetWarning,0829.3,5.00,000.00,025.9,024.5,000.0,034.2,027.6,22.4,0000.0,0010.51,0004.21,0003.62
2023-08-31 11:07:00,SystemResetWarning,0829.3,5.00,000.00,025.9,024.7,000.0,034.2,027.6,22.2,0000.0,0010.47,0004.19,0003.61
2023-08-31 11:08:00,SystemResetWarning,0829.3,5.00,000.00,025.9,024.8,000.0,034.3,027.7,22.2,0000.0,0010.23,0004.17,0003.61
2023-08-31 11:09:00,SystemResetWarning,0829.3,5.00,000.00,026.0,025.0,000.0,034.3,027.7,22.3,0000.0,0009.96,0004.15,0003.60
2023-08-31 11:10:00,SystemResetWarning,0829.3,5.00,000.00,026.0,025.1,000.0,034.3,027.8,22.4,0000.0,0010.52,0004.12,0003.59
2023-08-31 11:11:00,SystemResetWarning,0829.3,5.00,000.00,026.1,025.1,000.0,034.3,027.8,22.3,0000.0,0010.83,0004.11,0003.56
2023-08-31 11:12:00,SystemResetWarning,0829.4,5.01,000.00,026.1,025.2,000.0,034.4,027.9,21.5,0000.0,0010.50,0004.07,0003.54
2023-08-31 11:13:00,SystemResetWarning,0829.4,4.99,000.00,026.1,024.7,000.0,034.4,027.8,21.9,0000.0,0010.32,0004.02,0003.51
2023-08-31 11:14:00,SystemResetWarning,0829.4,4.99,000.00,026.1,023.1,000.0,034.3,027.4,22.2,0000.0,0009.96,0004.00,0003.49
2023-08-31 11:15:00,SystemResetWarning,0829.3,5.02,000.00,026.0,022.6,000.0,034.2,027.3,22.6,0000.0,0009.98,0003.98,0003.49
2023-08-31 11:16:00,SystemResetWarning,0829.4,4.99,000.00,025.9,022.8,000.0,034.2,027.2,22.6,0000.0,0010.55,0003.97,0003.49
2023-08-31 11:17:00,SystemResetWarning,0829.4,5.00,000.00,025.8,023.1,000.0,034.2,027.2,22.6,0000.0,0010.21,0003.97,0003.48
2023-08-31 11:18:00,SystemResetWarning,0829.3,5.00,000.00,025.8,023.4,000.0,034.2,027.3,22.6,0000.0,0010.68,0003.94,0003.47
2023-08-31 11:19:00,SystemResetWarning,0829.4,5.00,000.00,025.9,023.8,000.0,034.2,027.4,22.5,0000.0,0011.11,0003.93,0003.44
2023-08-31 11:20:00,SystemResetWarning,0829.4,5.00,000.00,025.9,024.1,000.0,034.3,027.5,22.2,0000.0,0011.39,0003.91,0003.40
2023-08-31 11:21:00,SystemResetWarning,0829.4,5.00,000.00,025.9,024.3,000.0,034.3,027.6,22.2,0000.0,0011.40,0003.90,0003.38
2023-08-31 11:22:00,SystemResetWarning,0829.4,5.00,000.00,025.9,024.5,000.0,034.3,027.6,22.1,0000.0,0010.88,0003.87,0003.36
2023-08-31 11:23:00,SystemResetWarning,0829.3,5.00,000.00,026.0,024.7,000.0,034.3,027.7,22.0,0000.0,0011.60,0003.84,0003.35
2023-08-31 11:24:00,SystemResetWarning,0829.4,5.00,000.00,026.0,024.9,000.0,034.3,027.7,21.9,0000.0,0011.54,0003.81,0003.34
2023-08-31 11:25:00,SystemResetWarning,0829.4,4.99,000.00,026.1,025.0,000.0,034.3,027.8,21.8,0000.0,0011.46,0003.78,0003.32
2023-08-31 11:26:00,SystemResetWarning,0829.3,4.99,000.00,026.1,025.1,000.0,034.4,027.8,21.8,0000.0,0011.31,0003.75,0003.30
2023-08-31 11:27:00,SystemResetWarning,0829.3,5.00,000.00,026.1,025.2,000.0,034.4,027.9,21.7,0000.0,0010.77,0003.73,0003.28
2023-08-31 11:28:00,SystemResetWarning,0829.3,5.00,000.00,026.2,024.7,000.0,034.4,027.8,20.7,0000.0,0010.24,0003.71,0003.27
2023-08-31 11:29:00,SystemResetWarning,0829.3,5.01,000.00,026.1,023.2,000.0,034.3,027.3,20.9,0000.0,0009.62,0003.71,0003.26
2023-08-31 11:30:00,SystemResetWarning,0829.4,5.01,000.00,026.0,022.8,000.0,034.2,027.2,21.5,0000.0,0009.34,0003.71,0003.26
2023-08-31 11:31:00,SystemResetWarning,0829.4,5.01,000.00,025.9,022.9,000.0,034.3,027.2,21.6,0000.0,0009.56,0003.73,0003.28
2023-08-31 11:32:00,SystemResetWarning,0829.3,4.99,000.00,025.9,023.2,000.0,034.3,027.2,21.5,0000.0,0009.16,0003.74,0003.29
2023-08-31 11:33:00,SystemResetWarning,0829.3,4.99,000.00,025.9,023.5,000.0,034.3,027.3,21.5,0000.0,0008.91,0003.75,0003.28
2023-08-31 11:34:00,SystemResetWarning,0829.3,5.00,000.00,025.9,023.9,000.0,034.3,027.4,21.5,0000.0,0008.66,0003.76,0003.28
2023-08-31 11:35:00,SystemResetWarning,0829.4,5.00,000.00,025.9,024.1,000.0,034.3,027.5,21.3,0000.0,0009.58,0003.79,0003.28
2023-08-31 11:36:00,SystemResetWarning,0829.4,5.00,000.00,025.9,024.4,000.0,034.3,027.6,20.2,0000.0,0009.91,0003.87,0003.28
2023-08-31 11:37:00,SystemResetWarning,0829.4,4.99,000.00,026.0,024.6,000.0,034.3,027.6,20.2,0000.0,0009.91,0003.91,0003.30
2023-08-31 11:38:00,SystemResetWarning,0829.4,4.99,000.00,026.0,024.7,000.0,034.3,027.7,20.1,0000.0,0010.01,0003.95,0003.32
2023-08-31 11:39:00,SystemResetWarning,0829.4,5.00,000.00,026.0,024.9,000.0,034.4,027.8,20.1,0000.0,0010.44,0003.96,0003.34
2023-08-31 11:40:00,SystemResetWarning,0829.3,5.00,000.00,026.1,025.0,000.0,034.4,027.8,20.0,0000.0,0010.62,0004.00,0003.36
2023-08-31 11:41:00,SystemResetWarning,0829.4,5.00,000.00,026.1,025.1,000.0,034.4,027.9,20.1,0000.0,0010.57,0003.99,0003.36
2023-08-31 11:42:00,SystemResetWarning,0829.4,5.00,000.00,026.2,025.2,000.0,034.4,027.9,19.8,0000.0,0010.18,0003.98,0003.37
2023-08-31 11:43:00,SystemResetWarning,0829.4,5.00,000.00,026.2,024.5,000.0,034.4,027.8,19.9,0000.0,0010.35,0004.01,0003.37
2023-08-31 11:44:00,SystemResetWarning,0829.3,5.01,000.00,026.1,023.0,000.0,034.3,027.4,20.1,0000.0,0010.44,0004.02,0003.38
2023-08-31 11:45:00,SystemResetWarning,0829.3,5.01,000.00,026.0,022.7,000.0,034.3,027.3,20.2,0000.0,0010.68,0004.06,0003.40
2023-08-31 11:46:00,SystemResetWarning,0829.3,4.99,000.00,025.9,022.9,000.0,034.3,027.1,20.2,0000.0,0009.40,0004.07,0003.42
2023-08-31 11:47:00,SystemResetWarning,0829.3,5.00,000.00,025.9,023.2,000.0,034.3,027.2,20.0,0000.0,0009.02,0003.99,0003.41
2023-08-31 11:48:00,SystemResetWarning,0829.2,5.00,000.00,025.9,023.5,000.0,034.3,027.4,20.2,0000.0,0008.88,0003.93,0003.41
2023-08-31 11:49:00,SystemResetWarning,0829.3,5.00,000.00,025.9,023.9,000.0,034.3,027.4,20.2,0000.0,0008.90,0003.91,0003.42
2023-08-31 11:50:00,SystemResetWarning,0829.3,5.00,000.00,025.9,024.1,000.0,034.3,027.5,20.1,0000.0,0008.60,0003.95,0003.44
2023-08-31 11:51:00,SystemResetWarning,0829.3,5.00,000.00,026.0,024.4,000.0,034.3,027.6,20.0,0000.0,0008.49,0003.96,0003.44
2023-08-31 11:52:00,SystemResetWarning,0829.3,5.00,000.00,026.0,024.6,000.0,034.4,027.7,20.1,0000.0,0008.54,0003.97,0003.46
2023-08-31 11:53:00,SystemResetWarning,0829.4,5.00,000.00,026.0,024.7,000.0,034.4,027.7,20.1,0000.0,0008.35,0004.01,0003.49
2023-08-31 11:54:00,SystemResetWarning,0829.3,4.99,000.00,026.1,024.9,000.0,034.4,027.8,20.0,0000.0,0008.15,0004.02,0003.51
2023-08-31 11:55:00,SystemResetWarning,0829.4,4.99,000.00,026.1,025.0,000.0,034.4,027.8,19.4,0000.0,0008.52,0004.08,0003.52
2023-08-31 11:56:00,SystemResetWarning,0829.4,5.00,000.00,026.1,025.1,000.0,034.4,027.9,19.7,0000.0,0008.65,0004.07,0003.53
2023-08-31 11:57:00,SystemResetWarning,0829.3,5.00,000.00,026.2,025.2,000.0,034.5,027.9,19.0,0000.0,0009.03,0004.10,0003.55
2023-08-31 11:58:00,SystemResetWarning,0829.3,5.00,000.00,026.2,025.1,000.0,034.5,027.9,18.7,0000.0,0009.20,0004.17,0003.58
2023-08-31 11:59:00,SystemResetWarning,0829.2,5.00,000.00,026.2,023.7,000.0,034.4,027.5,18.6,0000.0,0009.37,0004.22,0003.58
